Regional Weather Roundup
Issued by NWS Sioux Falls, SD

Home | Current Version | Previous Version | Text Only | Print | Product List | Glossary On
Versions: 1 2 3 4 5 6 7 8 9 10 11 12 13 14 15 16 17 18 19 20 21 22 23 24 25 26 27 28 29 30 31 32 33 34 35 36 37 38 39 40 41 42 43 44 45 46 47 48 49 50
000
ASUS43 KFSD 242302
RWRFSD

WEATHER ROUNDUP FOR SE SOUTH DAKOTA/SW MINNESOTA/NW IOWA
NATIONAL WEATHER SERVICE SIOUX FALLS SD
600 PM CDT WED AUG 24 2016

NOTE: "FAIR" INDICATES FEW OR NO CLOUDS BELOW 12,000 FEET WITH NO
SIGNIFICANT WEATHER AND OR OBSTRUCTIONS TO VISIBILITY.


SDZ038>040-050-052>070-250000-
SOUTHEAST SOUTH DAKOTA

CITY           SKY/WX    TMP DP  RH WIND       PRES   REMARKS
BROOKINGS      CLOUDY    70  57  63 NW7       30.03F
CHAMBERLAIN    CLOUDY    73  55  51 CALM      30.07R
HURON          CLOUDY    75  53  46 NW9       30.03F
MADISON        FAIR      70  59  68 W3        30.05S
MITCHELL       CLOUDY    72  59  63 CALM      30.03F
SIOUX FALLS    CLOUDY    72  59  63 CALM      30.06R
WINNER         FAIR      73  52  47 CALM      30.11R
YANKTON        CLOUDY    73  55  53 SE3       30.06S
$$

MNZ071-072-080-081-089-090-097-098-250000-
SOUTHWEST MINNESOTA

CITY           SKY/WX    TMP DP  RH WIND       PRES   REMARKS
FAIRMONT       CLOUDY    73  61  65 NW6       30.03R
JACKSON        CLOUDY    72  57  60 W6        30.04R
LUVERNE        CLOUDY    70  57  64 NW5       30.05F
MARSHALL       CLOUDY    72  59  63 W8        30.02R
MONTEVIDEO     CLOUDY    73  57  56 N13       30.01F
REDWOOD FALLS  CLOUDY    73  59  61 NW5       30.00S
TRACY          CLOUDY    72  62  71 W3        30.04R
WINDOM         PTSUNNY   72  59  64 W7        30.04S
WORTHINGTON    CLOUDY    70  60  70 W8        30.05F
$$

IAZ001>003-012>014-020>022-031-032-NEZ013-014-SDZ071-250000-
NORTHWEST IOWA

CITY           SKY/WX    TMP DP  RH WIND       PRES   REMARKS
CHEROKEE       CLOUDY    73  62  70 NW3       30.05R
DENISON        CLOUDY    73  64  73 NW5       30.03S HAZE
ESTHERVILLE    CLOUDY    71  64  78 W7        30.03S
LE MARS        CLOUDY    72  63  73 W6        30.06F
ORANGE CITY    CLOUDY    70  64  83 W3        30.06F
SHELDON        CLOUDY    72  63  73 VRB3      30.04S
SIOUX CITY     CLOUDY    71  63  75 W3        30.06S
SPENCER        CLOUDY    73  62  68 W8        30.04S
STORM LAKE     CLOUDY    72  64  78 MISG      30.05S
$$

ABBREVIATIONS USED IN REMARKS
   TC - TEMPERATURE IN CELSIUS
  WCI - WIND CHILL INDEX
   HX - HEAT INDEX
  VSB - VISIBILITY




USA.gov is the U.S. government's official web portal to all federal, state and local government web resources and services.